Land O' Lakes, WI

12:24 PM CDT on September 30, 2016 (GMT -0500)
Kings Land O'Lakes

Weather History for KLNL - January, 2014

Change the Weather History Date:

Tuesday, January 7, 2014

  Actual Average (KEGV) Record (KEGV)
Temperature  
Mean Temperature -15 °F -  
Max Temperature -3 °F 21 °F 44 °F (2003)
Min Temperature -27 °F 4 °F -24 °F (2014)
Degree Days  
Heating Degree Days 80    
Moisture  
Dew Point -24 °F    
Average Humidity 69    
Maximum Humidity 78    
Minimum Humidity 57    
Precipitation  
Precipitation 0.00 in - - ()
Sea Level Pressure  
Sea Level Pressure 29.91 in    
Wind  
Wind Speed 6 mph (WSW)    
Max Wind Speed 12 mph    
Max Gust Speed 18 mph    
Visibility 10 miles    
Events Snow    
Averages and records for this station are not official NWS values.
T = Trace of Precipitation, MM = Missing Value Source: NWS Daily Summary

Daily Weather History Graph

Daily Weather History Graph

Search for Another Location

Airport or City:

Trip Planner

Search our weather history database for the weather conditions in past years. The results will help you decide how hot, cold, wet, or windy it might be!

Date:

Astronomy

Jan. 07, 2014 Rise Set
Actual Time 7:38 AM CST 4:27 PM CST
Civil Twilight 7:04 AM CST 5:02 PM CST
Nautical Twilight 6:26 AM CST 5:39 PM CST
Astronomical Twilight 5:50 AM CST 6:16 PM CST
Moon 11:02 AM CST (1/7) No Moon Set
Length of Visible Light 9h 57m
Length of Day
8h 49m
Waxing Crescent, 46% of the Moon is Illuminated
Jan 7
Waxing Crescent
Jan 7
First Quarter
Jan 15
Full
Jan 23
Last Quarter
Jan 30
New

Hourly Weather History & Observations

Time (CST) Temp. Windchill Dew Point Humidity Pressure Visibility Wind Dir Wind Speed Gust Speed Precip Events Conditions
12:15 AM -21.1 °F -36.6 °F -28.1 °F 70% 29.82 in 10.0 mi WSW 5.8 mph - N/A   Clear
12:35 AM -21.3 °F -36.8 °F -28.1 °F 71% 29.82 in 10.0 mi WSW 5.8 mph - N/A   Clear
12:55 AM -21.5 °F -34.9 °F -27.9 °F 72% 29.81 in 10.0 mi West 4.6 mph - N/A   Clear
1:15 AM -21.5 °F -32.4 °F -28.3 °F 71% 29.80 in 10.0 mi WSW 3.5 mph - N/A   Clear
1:35 AM -21.6 °F -32.6 °F -28.3 °F 71% 29.82 in 10.0 mi WSW 3.5 mph - N/A   Clear
1:55 AM -21.5 °F -34.9 °F -28.3 °F 71% 29.82 in 10.0 mi WSW 4.6 mph - N/A   Scattered Clouds
2:15 AM -20.2 °F -35.5 °F -27.4 °F 69% 29.82 in 10.0 mi WSW 5.8 mph - N/A   Mostly Cloudy
2:35 AM -19.8 °F -39.7 °F -26.9 °F 70% 29.83 in 10.0 mi WSW 9.2 mph - N/A   Overcast
2:55 AM -19.8 °F -39.7 °F -26.9 °F 70% 29.83 in 10.0 mi West 9.2 mph 17.3 mph N/A   Overcast
3:15 AM -20.2 °F -40.1 °F -27.4 °F 69% 29.83 in 10.0 mi West 9.2 mph - N/A   Mostly Cloudy
3:35 AM -21.1 °F -42.4 °F -27.6 °F 72% 29.83 in 10.0 mi West 10.4 mph 16.1 mph N/A   Scattered Clouds
3:55 AM -21.5 °F -40.3 °F -28.1 °F 71% 29.84 in 10.0 mi West 8.1 mph - N/A   Clear
4:15 AM -22.0 °F -41.0 °F -28.5 °F 72% 29.83 in 10.0 mi WSW 8.1 mph 16.1 mph N/A   Clear
4:35 AM -22.0 °F -41.0 °F -28.5 °F 72% 29.82 in 10.0 mi WSW 8.1 mph - N/A   Clear
4:55 AM -22.0 °F -41.0 °F -28.3 °F 73% 29.82 in 10.0 mi West 8.1 mph - N/A   Clear
5:15 AM -22.2 °F -39.7 °F -28.5 °F 72% 29.82 in 7.0 mi WSW 6.9 mph - N/A   Clear
5:35 AM -22.0 °F -42.3 °F -28.5 °F 72% 29.82 in 7.0 mi West 9.2 mph - N/A   Clear
5:55 AM -22.0 °F -41.0 °F -28.5 °F 72% 29.82 in 10.0 mi West 8.1 mph - N/A   Clear
6:15 AM -22.2 °F -39.7 °F -28.5 °F 72% 29.82 in 10.0 mi West 6.9 mph - N/A   Clear
6:35 AM -22.0 °F -42.3 °F -28.5 °F 72% 29.82 in 10.0 mi WSW 9.2 mph - N/A   Mostly Cloudy
6:55 AM -21.6 °F -39.0 °F -28.3 °F 71% 29.82 in 10.0 mi West 6.9 mph - N/A   Overcast
7:15 AM -21.6 °F -43.1 °F -28.3 °F 71% 29.83 in 10.0 mi West 10.4 mph 18.4 mph N/A   Overcast
7:35 AM -22.4 °F -42.8 °F -29.0 °F 71% 29.84 in 10.0 mi West 9.2 mph - N/A   Mostly Cloudy
7:55 AM -22.4 °F -44.0 °F -29.2 °F 70% 29.84 in 10.0 mi West 10.4 mph 18.4 mph N/A   Mostly Cloudy
8:15 AM -22.2 °F -43.8 °F -28.8 °F 71% 29.86 in 10.0 mi West 10.4 mph 17.3 mph N/A   Overcast
8:35 AM -21.6 °F -43.1 °F -28.5 °F 71% 29.87 in 10.0 mi West 10.4 mph 17.3 mph N/A   Scattered Clouds
8:55 AM -21.1 °F -38.4 °F -28.3 °F 69% 29.89 in 10.0 mi West 6.9 mph - N/A   Clear
9:15 AM -20.0 °F -37.1 °F -27.4 °F 69% 29.89 in 10.0 mi West 6.9 mph 16.1 mph N/A   Clear
9:35 AM -18.4 °F -37.9 °F -26.1 °F 68% 29.90 in 10.0 mi West 9.2 mph 18.4 mph N/A   Clear
9:55 AM -17.1 °F -35.0 °F -25.4 °F 66% 29.91 in 10.0 mi West 8.1 mph - N/A   Clear
10:15 AM -15.7 °F -35.7 °F -24.3 °F 65% 29.91 in 7.0 mi West 10.4 mph - N/A   Clear
10:35 AM -14.3 °F -32.8 °F -22.9 °F 65% 29.90 in 10.0 mi West 9.2 mph - N/A   Clear
10:55 AM -13.0 °F -31.3 °F -22.0 °F 64% 29.90 in 10.0 mi WSW 9.2 mph - N/A   Clear
11:15 AM -11.7 °F -30.8 °F -21.1 °F 63% 29.89 in 10.0 mi WSW 10.4 mph - N/A   Clear
11:35 AM -10.7 °F -27.2 °F -20.2 °F 63% 29.89 in 10.0 mi West 8.1 mph 16.1 mph N/A   Clear
11:55 AM -9.4 °F -27.9 °F -19.3 °F 62% 29.89 in 10.0 mi West 10.4 mph 16.1 mph N/A   Clear
12:15 PM -8.3 °F -26.6 °F -18.6 °F 61% 29.89 in 10.0 mi West 10.4 mph 17.3 mph N/A   Clear
12:35 PM -7.6 °F -26.6 °F -18.2 °F 60% 29.88 in 10.0 mi West 11.5 mph 18.4 mph N/A   Clear
12:55 PM -6.9 °F -24.8 °F -18.2 °F 58% 29.88 in 10.0 mi SW 10.4 mph - N/A   Clear
1:15 PM -6.0 °F -23.6 °F -17.7 °F 57% 29.88 in 10.0 mi WSW 10.4 mph - N/A   Clear
1:35 PM -6.0 °F -23.6 °F -16.8 °F 60% 29.89 in 10.0 mi WSW 10.4 mph 17.3 mph N/A   Clear
1:55 PM -5.3 °F -20.6 °F -16.1 °F 60% 29.89 in 10.0 mi West 8.1 mph - N/A   Clear
2:15 PM -4.5 °F -19.7 °F -15.3 °F 60% 29.90 in 10.0 mi West 8.1 mph - N/A   Clear
2:35 PM -4.2 °F -21.4 °F -14.8 °F 60% 29.91 in 10.0 mi WSW 10.4 mph - N/A   Clear
2:55 PM -3.6 °F -15.9 °F -14.6 °F 59% 29.92 in 10.0 mi West 5.8 mph - N/A   Clear
3:15 PM -4.0 °F -16.3 °F -14.3 °F 61% 29.93 in 10.0 mi West 5.8 mph - N/A   Clear
3:35 PM -4.2 °F -19.3 °F -14.3 °F 62% 29.94 in 10.0 mi West 8.1 mph - N/A   Clear
3:55 PM -4.9 °F -17.4 °F -14.1 °F 65% 29.95 in 10.0 mi West 5.8 mph - N/A   Clear
4:15 PM -5.6 °F -16.5 °F -14.4 °F 66% 29.95 in 10.0 mi West 4.6 mph - N/A   Clear
4:35 PM -6.7 °F -15.5 °F -14.8 °F 68% 29.96 in 10.0 mi West 3.5 mph - N/A   Clear
4:55 PM -7.8 °F - -14.8 °F 71% 29.98 in 10.0 mi Calm Calm - N/A   Clear
5:15 PM -9.0 °F - -15.7 °F 73% 29.98 in 10.0 mi Calm Calm - N/A   Clear
5:35 PM -11.7 °F - -17.5 °F 76% 29.99 in 10.0 mi Calm Calm - N/A   Clear
5:55 PM -16.2 °F - -21.8 °F 76% 30.00 in 10.0 mi Calm Calm - N/A   Clear
6:15 PM -19.1 °F - -25.2 °F 73% 30.00 in 10.0 mi Calm Calm - N/A   Clear
6:35 PM -19.7 °F - -25.4 °F 75% 30.01 in 10.0 mi Calm Calm - N/A   Clear
6:55 PM -20.7 °F - -26.7 °F 74% 30.01 in 10.0 mi Calm Calm - N/A   Clear
7:15 PM -22.5 °F - -28.7 °F 73% 30.01 in 10.0 mi Calm Calm - N/A   Clear
7:35 PM -23.8 °F - -29.7 °F 74% 30.01 in 10.0 mi Calm Calm - N/A   Clear
7:55 PM -26.3 °F - -33.0 °F 71% 30.02 in 10.0 mi Calm Calm - N/A   Clear
8:15 PM -25.1 °F -36.5 °F -31.2 °F 73% 30.02 in 10.0 mi SW 3.5 mph - N/A   Clear
8:35 PM -26.0 °F - -32.4 °F 71% 30.02 in 10.0 mi Calm Calm - N/A   Clear
8:55 PM -26.1 °F - -32.4 °F 72% 30.03 in 10.0 mi Calm Calm - N/A   Clear
9:15 PM -26.3 °F - -32.8 °F 71% 30.04 in 10.0 mi Calm Calm - N/A   Clear
9:35 PM -27.8 °F -39.6 °F -35.0 °F 69% 30.04 in 10.0 mi SW 3.5 mph - N/A   Scattered Clouds
9:55 PM -27.0 °F - -33.7 °F 71% 30.05 in 10.0 mi Calm Calm - N/A   Mostly Cloudy
10:15 PM -24.5 °F -38.5 °F -30.1 °F 75% 30.05 in 7.0 mi SW 4.6 mph - N/A Snow Light Snow
10:35 PM -15.7 °F -25.8 °F -20.9 °F 77% 30.06 in 7.0 mi WSW 3.5 mph - N/A Snow Light Snow
10:55 PM -13.0 °F -22.7 °F -18.4 °F 77% 30.06 in 7.0 mi WSW 3.5 mph - N/A Snow Light Snow
11:15 PM -12.1 °F -21.7 °F -17.3 °F 78% 30.07 in 7.0 mi WSW 3.5 mph - N/A Snow Light Snow
11:35 PM -11.0 °F -22.8 °F -16.1 °F 78% 30.06 in 7.0 mi WSW 4.6 mph - N/A Snow Light Snow
11:55 PM -10.3 °F -21.9 °F -15.3 °F 78% 30.07 in 7.0 mi West 4.6 mph - N/A Snow Light Snow